Wind_Speed
25 24 25 23 22 23 21 20 20 22 22 20 19 18 17 18 18 20 22 24 25 26 25 23 21 20 19 19 20 20 20 20 20 19 17 15 14 13 12 11 9 7 6 6 7 7 7 7 8 10 13 15 17 18 19 19 19 19 19 19 18 19 21
27 27 28 25 23 22 20 20 21 23 24 24 23 21 19 19 20 21 23 25 25 26 26 24 22 20 20 20 21 21 21 21 21 19 18 16 14 12 11 9 6 4 4 6 6 4 5 7 8 10 12 14 16 18 19 19 19 20 20 21 21 21 22
26 30 29 25 24 22 19 20 22 23 25 26 25 22 20 21 22 22 24 25 25 25 26 25 23 22 21 21 21 22 22 22 21 20 18 15 13 11 8 5 4 4 6 7 5 2 5 9 10 10 11 13 15 16 17 17 19 20 21 21 21 22 22
25 29 27 23 23 22 19 19 23 24 25 27 26 23 22 24 23 22 23 24 24 25 25 25 25 23 22 22 22 23 23 23 21 19 17 14 11 8 4 6 6 6 7 7 6 4 6 9 10 10 11 12 13 14 15 16 18 20 21 21 22 23 23
27 28 23 18 20 20 18 19 23 24 24 25 26 25 24 26 24 22 22 23 23 23 23 24 23 22 21 21 20 21 21 21 19 17 14 11 8 6 8 9 8 6 7 7 6 7 8 8 8 9 10 10 11 12 14 15 17 19 21 22 23 23 24
24 27 22 17 16 17 18 21 23 23 20 21 24 26 26 27 26 23 22 23 23 22 21 21 20 19 19 18 17 17 16 15 13 12 9 7 6 9 10 8 6 5 6 6 5 6 7 7 7 8 9 10 11 12 14 15 16 18 20 21 22 22 23
21 25 23 21 20 18 18 19 20 20 19 21 24 26 26 27 27 26 25 24 22 20 19 17 16 16 15 15 14 13 11 9 8 6 4 5 10 11 8 6 5 5 6 6 6 6 7 8 9 9 10 10 11 12 13 15 17 18 18 20 21 21 22
24 25 24 23 23 20 17 17 18 18 20 24 26 25 25 27 29 28 27 25 22 19 17 15 14 13 12 12 11 9 6 5 4 2 4 10 12 10 7 6 6 6 6 7 7 7 7 9 10 10 10 10 10 11 13 16 18 20 20 20 21 21 22
30 30 27 25 24 21 18 17 19 19 18 21 23 24 24 25 27 27 27 25 22 18 15 13 13 11 10 9 9 7 4 2 3 6 10 13 11 8 7 7 7 7 6 6 6 7 8 9 9 9 9 9 10 12 15 18 21 23 24 24 24 24 24
35 37 34 30 25 22 21 20 21 21 20 20 22 23 23 23 25 26 26 26 23 19 16 14 12 10 8 8 7 6 4 5 8 12 14 13 10 8 7 6 6 6 6 6 6 6 7 7 7 7 8 9 11 14 17 19 22 24 26 27 27 27 27
34 35 35 32 26 24 25 25 23 23 23 23 22 23 23 23 24 25 26 26 24 21 19 16 13 10 9 9 8 7 6 8 13 16 16 13 11 9 8 6 4 3 3 4 4 5 5 6 7 8 10 11 14 16 18 20 22 25 28 29 29 29 30
29 27 27 29 30 30 30 27 24 25 27 28 26 25 27 26 25 26 27 26 24 23 21 18 14 12 11 11 9 8 7 12 16 17 16 14 13 10 9 6 4 2 2 2 4 5 5 6 8 9 12 14 16 18 20 21 23 26 28 29 30 31 31
26 24 25 29 34 35 31 27 27 29 30 31 30 28 30 29 26 27 28 27 25 25 24 21 16 13 13 13 11 9 9 15 18 16 16 15 14 12 9 7 5 3 2 4 6 8 9 9 10 12 14 17 17 18 20 22 24 27 30 32 34 34 34
26 26 28 32 37 36 31 27 29 30 31 33 32 31 32 31 28 27 29 29 28 28 27 24 18 14 14 14 13 10 12 18 18 16 16 16 15 13 11 8 5 4 5 8 10 13 14 15 15 16 18 19 19 20 21 23 25 28 31 35 36 36 36
27 30 31 31 31 32 30 29 30 31 32 34 33 32 33 33 31 29 30 30 30 30 30 27 20 15 15 15 14 13 16 19 18 16 16 16 16 15 11 8 6 7 9 11 13 15 16 17 18 19 21 22 23 23 24 26 27 30 33 35 36 36 36
28 32 34 31 29 30 31 31 32 33 34 35 35 35 36 36 35 34 33 33 32 31 32 29 22 17 16 16 15 16 19 19 17 16 16 16 18 16 11 9 8 9 11 13 15 16 17 18 19 21 23 25 26 26 27 28 29 32 33 35 35 36 37
32 35 35 33 32 32 34 34 35 36 37 38 39 39 39 39 38 37 37 38 37 35 35 33 25 19 18 17 18 19 21 20 17 17 17 18 19 17 12 10 11 11 12 14 16 17 18 19 20 22 24 27 28 29 30 31 31 32 34 35 36 37 38
35 39 38 38 37 35 35 37 38 41 43 43 43 42 41 39 38 38 39 38 37 37 37 35 28 21 19 19 20 21 21 20 19 19 19 19 18 16 13 13 13 13 15 16 17 19 20 20 21 23 26 28 30 32 34 34 34 34 36 38 38 37 38
36 38 37 39 43 43 43 44 46 49 48 45 44 43 40 38 38 38 37 35 36 38 37 35 30 23 21 21 21 21 21 21 21 21 21 20 19 17 16 15 15 16 18 19 20 21 22 22 23 24 26 30 32 34 35 36 36 36 38 41 40 38 38
40 37 31 29 35 41 45 47 49 49 45 42 42 42 39 38 37 37 36 36 36 37 36 34 31 26 22 23 23 22 22 23 23 23 23 22 21 20 19 18 18 19 20 21 22 24 24 26 27 26 28 32 35 37 38 39 38 36 39 43 44 41 40
45 42 35 31 33 38 42 47 48 45 42 39 38 38 38 39 38 37 37 37 37 36 34 31 29 28 25 25 25 24 24 24 24 24 24 23 23 22 21 20 20 21 22 24 25 26 27 29 29 28 31 37 40 40 41 42 41 39 41 44 43 40 39
47 46 44 41 41 42 43 46 48 48 47 44 39 36 37 40 40 39 37 37 36 36 34 31 30 29 28 27 27 26 26 26 26 25 24 24 25 24 22 22 22 22 24 25 26 28 29 30 31 32 35 41 43 43 42 43 42 41 41 43 41 39 38
48 49 49 48 48 48 47 48 50 51 51 49 44 41 40 40 41 41 38 37 37 38 36 34 32 30 30 29 29 29 29 28 28 26 26 26 26 24 23 23 23 23 25 26 27 29 31 33 35 37 40 43 45 44 41 40 39 37 37 39 40 39 38
52 51 51 52 52 53 53 54 55 54 53 51 47 44 42 42 44 44 41 39 40 40 38 37 34 32 31 31 31 32 31 30 29 28 27 26 26 24 24 24 24 24 26 27 28 30 33 35 38 40 42 44 42 40 38 36 33 33 36 39 40 40 39
57 54 52 52 53 54 54 53 51 50 51 49 44 41 41 43 46 47 45 43 43 41 40 39 36 34 34 34 33 34 33 32 30 28 27 25 24 24 25 25 24 25 27 28 30 31 34 37 40 42 44 43 40 38 37 35 34 36 39 41 41 41 40
56 55 55 55 56 55 54 51 47 46 50 51 46 42 43 47 49 50 49 47 45 44 43 42 39 38 37 38 37 36 34 33 31 29 25 23 23 25 26 25 25 26 28 30 31 33 36 38 40 42 42 41 39 38 37 36 37 39 41 42 42 41 39
56 55 56 56 56 57 58 57 51 47 51 56 52 45 43 47 50 51 51 50 49 48 46 44 44 43 43 42 40 38 35 34 31 27 24 24 25 26 26 26 27 29 30 32 33 35 37 38 39 40 39 37 36 37 36 36 38 41 43 43 42 41 40
59 61 62 61 58 55 56 59 58 53 53 59 60 53 47 47 49 51 53 54 53 51 49 49 50 49 47 46 43 39 37 36 30 25 25 27 28 28 28 28 30 32 32 34 36 38 39 39 39 40 38 37 37 38 37 37 41 43 44 43 42 41 39
54 58 62 65 65 60 56 56 60 62 61 62 65 63 57 53 53 56 58 57 55 53 53 54 55 53 50 49 46 42 39 36 30 28 30 31 30 30 31 31 32 33 34 36 39 41 41 41 41 40 39 38 39 39 39 40 43 44 44 44 43 41 39
47 49 52 57 60 61 59 55 55 61 66 67 69 69 67 64 63 63 62 59 56 55 57 57 57 57 55 53 50 46 42 38 33 32 32 32 32 32 32 32 34 35 36 39 41 42 43 44 43 41 39 39 40 41 42 43 45 45 45 45 43 41 39
49 48 50 51 53 57 58 56 54 57 62 66 70 72 71 72 71 68 66 64 60 58 61 63 62 61 61 59 55 51 45 40 36 35 35 34 32 32 31 32 35 36 38 41 43 44 46 46 43 39 38 39 41 44 45 45 46 46 45 44 41 40 39
52 49 49 50 53 55 57 57 56 57 60 64 68 70 72 74 75 72 71 71 69 66 66 67 67 67 66 63 58 55 51 48 44 41 40 35 30 30 32 34 37 39 41 44 45 45 46 44 39 36 37 40 43 46 47 47 47 46 43 41 39 39 40
55 52 49 50 52 54 56 57 56 57 61 67 69 69 71 73 72 70 70 71 72 72 71 69 68 69 65 59 55 53 52 51 48 41 34 30 28 30 34 37 39 42 43 45 47 46 43 39 36 36 39 42 45 47 48 48 47 45 42 40 40 40 40
55 53 52 52 51 52 54 56 56 55 57 62 65 67 70 72 70 68 67 67 68 70 73 72 69 66 59 51 48 47 43 41 38 32 27 28 30 33 36 39 42 43 45 48 50 46 40 38 38 40 42 44 46 48 48 47 46 45 42 41 41 41 40
53 54 54 53 52 52 52 54 55 54 52 55 58 62 66 70 70 68 68 68 66 63 67 69 66 63 54 42 38 40 36 30 29 28 28 30 32 35 38 40 42 44 46 49 47 41 38 39 41 42 44 46 49 50 48 46 45 44 42 41 41 41 41
51 53 54 54 54 54 53 52 53 53 54 57 59 60 61 63 66 67 68 67 61 56 58 57 53 52 47 37 31 30 27 25 25 27 29 32 35 38 41 43 44 43 43 44 44 43 43 44 43 43 45 48 51 51 47 43 43 42 41 40 41 41 40
50 51 52 52 53 53 52 51 51 52 55 59 60 60 60 60 62 64 63 58 48 44 46 43 36 35 36 34 30 27 25 24 26 29 32 35 39 41 42 44 44 42 41 43 47 49 49 46 45 46 48 49 50 48 43 40 40 40 40 39 39 39 38
48 49 50 51 52 54 56 55 54 55 57 59 60 63 62 58 57 56 51 46 40 35 33 29 25 26 30 32 32 30 28 28 31 34 36 38 40 42 43 43 43 42 43 46 49 50 49 48 49 50 49 46 44 41 38 37 38 39 39 38 38 37 37
Wind_Direction
238 240 242 241 241 240 239 241 241 240 241 243 246 252 260 265 267 267 262 257 255 255 257 257 253 248 246 248 250 252 254 257 259 264 268 275 283 291 299 301 303 306 302 290 288 296 316 330 335 340 344 349 354 359 4 7 9 16 18 15 13 10 8
233 234 240 244 247 247 245 246 247 246 248 250 249 251 256 260 263 264 260 256 253 252 253 254 253 250 247 247 250 252 254 257 260 263 268 276 284 292 297 298 293 282 268 270 279 306 343 347 338 334 338 349 357 1 6 9 10 12 14 12 10 9 7
228 229 239 248 251 251 252 252 249 248 249 251 249 248 250 254 257 258 257 255 252 250 250 251 252 251 250 250 252 254 256 258 260 264 269 276 284 290 290 271 238 228 242 259 263 283 357 350 339 333 335 345 355 359 3 8 10 9 8 7 5 3 1
227 232 241 247 248 249 252 252 253 254 254 251 247 243 244 251 255 255 254 253 251 249 248 249 251 252 252 252 252 255 257 258 261 265 269 274 281 280 239 200 208 223 246 266 268 271 316 335 338 335 334 338 346 352 359 5 7 5 3 3 1 359 357
233 239 243 243 243 245 247 251 256 261 259 251 245 243 245 250 254 253 249 248 247 247 246 247 250 252 254 255 255 257 259 260 262 263 265 273 270 230 189 193 214 238 263 280 280 277 300 325 338 338 337 337 340 346 352 356 359 359 358 357 356 355 354
239 241 240 235 233 234 238 244 251 259 259 250 244 245 248 252 254 249 243 242 243 244 245 247 251 254 256 258 259 262 264 265 263 260 264 264 222 192 186 200 225 253 272 281 279 282 303 326 338 345 348 345 340 342 346 347 348 349 350 352 353 352 352
245 242 236 223 217 222 230 238 248 257 257 249 245 248 253 257 257 250 241 239 240 242 245 248 253 257 260 262 263 266 271 269 260 259 256 211 189 184 189 208 235 259 271 280 286 297 315 328 337 349 357 355 347 343 345 347 345 343 342 344 347 349 349
258 255 248 234 225 220 219 232 250 261 260 254 252 256 259 260 261 256 245 238 238 242 245 249 255 259 261 263 265 265 266 258 247 226 184 182 181 183 198 220 245 262 273 286 296 307 319 327 337 349 356 358 353 349 351 351 349 345 341 338 339 341 342
266 266 264 260 249 231 218 232 251 257 260 260 258 256 257 260 262 257 247 240 240 242 245 248 252 255 258 260 260 254 238 212 180 160 168 177 180 190 212 230 252 269 283 294 302 311 318 325 337 347 348 344 342 347 352 352 350 347 343 338 335 334 335
262 260 262 265 259 239 224 230 244 251 259 264 261 253 251 255 257 254 250 247 243 242 243 244 245 246 247 247 246 237 207 168 158 159 166 176 184 199 218 236 257 277 293 301 306 314 318 321 327 330 328 329 336 343 347 346 343 341 338 336 333 332 333
253 249 251 253 248 235 224 224 236 251 259 262 260 252 246 248 253 256 257 253 246 242 242 241 238 234 233 235 233 229 200 167 163 164 167 176 190 203 217 232 249 268 286 298 308 319 323 317 316 322 326 333 340 342 339 337 335 334 334 332 331 330 331
248 244 243 241 237 231 223 221 234 247 253 257 258 249 243 245 250 254 256 251 248 247 244 241 235 224 227 230 225 225 203 173 170 172 170 175 190 206 218 219 207 198 232 289 314 329 335 327 322 326 331 335 337 334 332 331 331 333 333 331 329 328 328
247 245 244 240 238 234 225 223 233 238 242 252 255 248 242 243 246 249 250 249 249 250 249 244 234 220 223 225 221 221 198 177 177 178 173 177 190 203 212 211 203 215 277 310 322 328 332 332 332 331 331 335 337 333 330 331 332 333 333 331 330 329 328
240 240 243 243 239 235 228 226 233 236 240 248 253 250 244 243 245 245 246 248 251 253 254 249 235 219 219 219 216 212 189 180 184 183 177 180 189 195 201 210 235 278 304 314 321 326 328 331 335 335 333 334 336 334 331 330 331 331 330 329 328 326 327
230 232 238 240 235 229 227 230 235 239 244 248 252 252 247 245 246 245 246 250 254 257 257 252 238 220 218 215 209 202 190 187 191 190 185 184 185 192 203 220 256 286 300 310 317 322 327 332 336 335 333 333 334 332 329 329 330 329 327 325 323 323 324
221 226 233 237 239 237 235 237 240 242 246 250 252 253 253 252 251 250 251 254 257 260 261 257 242 221 217 212 202 198 197 196 199 200 197 191 188 196 213 237 264 283 293 302 311 317 324 332 334 332 331 330 330 328 326 326 328 328 326 323 321 321 321
219 221 226 230 236 242 240 239 241 243 247 250 252 254 256 255 254 253 253 253 256 262 265 260 246 225 216 210 202 200 201 201 204 207 206 200 197 204 221 245 265 278 287 297 305 313 320 325 328 328 326 325 324 322 322 324 325 324 323 320 318 317 319
223 220 221 223 227 233 237 239 242 244 246 248 250 251 251 252 255 256 254 254 256 260 263 261 251 231 216 211 205 202 203 204 205 210 212 208 207 215 230 247 260 271 281 292 300 306 313 318 320 321 320 320 319 318 319 321 320 320 319 317 316 315 317
233 229 227 225 225 229 232 235 239 241 243 246 247 247 248 250 254 257 256 255 256 258 260 260 254 240 223 216 212 205 205 206 208 212 215 214 215 225 237 248 258 267 276 285 293 299 306 311 312 313 316 318 315 314 315 315 315 318 317 315 316 317 317
234 236 237 235 233 236 237 237 237 238 241 246 247 244 245 248 250 252 253 254 255 257 259 258 256 251 236 223 217 210 208 210 211 214 217 218 222 230 239 248 257 267 276 282 288 295 302 306 305 302 307 313 311 310 311 310 312 317 315 313 317 320 319
229 229 231 235 239 241 241 242 242 241 246 251 248 241 239 242 244 245 248 251 255 258 261 259 257 256 249 235 222 213 212 213 214 215 218 220 226 233 240 249 258 268 277 282 289 297 304 309 306 296 297 304 308 309 309 307 309 313 310 308 314 320 318
233 227 223 225 230 234 238 241 243 244 247 249 248 243 240 241 242 243 244 248 254 257 260 260 257 255 254 245 230 218 214 215 215 216 219 222 227 233 241 250 259 270 279 284 292 301 304 307 305 298 297 303 306 307 308 306 304 304 304 303 307 313 313
235 231 228 229 230 230 232 236 240 244 246 247 246 244 242 241 241 243 244 246 251 254 256 257 258 256 254 250 238 225 218 216 216 217 220 223 228 234 243 253 262 272 280 286 293 299 301 304 305 303 303 305 306 307 308 308 304 299 299 302 305 308 311
233 232 233 235 235 234 233 235 238 240 244 246 244 240 240 241 241 243 245 247 248 251 253 255 258 258 256 252 243 231 222 218 218 221 224 227 232 238 247 257 266 275 282 287 292 297 301 304 305 305 305 306 308 309 310 310 307 303 303 305 306 308 310
232 232 232 233 235 237 238 239 241 241 241 243 243 242 241 240 240 242 245 247 247 250 253 255 257 258 257 253 245 236 227 223 221 223 227 232 238 245 252 261 270 278 284 289 294 298 302 304 305 306 306 305 306 308 309 308 307 307 307 307 305 306 309
232 233 233 232 233 235 236 239 243 246 244 242 240 240 240 238 237 240 243 245 247 250 253 255 256 255 254 251 245 239 233 228 226 226 229 235 242 250 257 265 273 280 284 289 294 297 300 303 305 307 307 305 304 305 306 307 307 308 307 306 305 304 306
231 234 235 235 235 236 236 236 237 241 245 243 239 235 235 235 235 238 242 245 248 250 252 252 252 251 250 248 245 240 235 232 230 228 231 236 243 250 259 267 272 277 282 287 291 294 294 297 301 303 303 301 301 302 304 305 306 306 306 306 305 304 305
230 233 235 236 236 235 236 238 237 237 241 245 244 239 235 234 238 243 245 246 248 249 249 249 249 248 248 248 245 239 234 233 234 232 234 239 244 251 258 263 268 273 280 284 286 286 288 290 295 297 297 296 298 301 301 303 306 306 305 305 306 306 306
231 231 233 237 238 236 235 238 240 239 240 245 248 247 243 239 240 242 242 242 244 245 244 246 248 248 248 248 246 239 233 233 234 233 236 240 244 250 256 261 267 272 277 280 281 282 285 288 291 293 295 296 298 299 299 302 307 307 305 306 307 307 307
236 233 232 234 236 233 232 235 239 242 242 244 246 249 247 243 239 237 235 236 239 241 241 242 245 247 247 246 245 240 234 231 231 232 236 240 244 250 257 263 269 273 276 278 280 283 286 287 289 293 297 298 298 298 300 304 307 307 307 308 307 306 308
240 237 235 235 235 232 230 231 236 240 243 246 247 249 250 249 245 240 235 233 235 240 240 238 239 242 244 243 242 238 231 226 226 230 234 238 244 253 261 267 271 274 277 279 282 285 288 287 287 292 297 297 298 300 302 305 308 309 309 308 307 308 311
240 239 239 239 238 236 233 233 234 237 240 244 247 249 251 251 251 249 246 242 241 241 240 237 235 238 240 239 236 232 226 222 222 224 230 238 248 257 263 267 270 272 275 278 279 281 286 287 287 292 297 298 300 302 304 307 310 311 310 309 309 311 314
239 241 244 242 239 239 240 240 241 242 243 243 245 249 251 252 252 252 252 252 250 244 239 237 236 237 240 239 236 232 229 226 224 226 234 246 256 261 264 268 270 271 273 275 275 276 282 286 287 291 296 298 301 303 305 308 311 310 310 311 312 314 315
242 246 249 249 246 245 246 247 248 251 251 249 250 254 256 255 253 251 252 258 260 250 238 234 234 236 241 243 238 233 232 230 231 238 251 258 262 266 268 271 273 274 275 276 275 276 280 284 286 290 294 297 300 302 305 308 310 309 309 312 313 314 313
246 249 253 255 255 255 255 253 252 252 254 255 257 260 261 259 256 253 253 260 264 252 236 231 230 231 237 240 232 224 226 234 244 255 262 265 267 269 271 272 275 277 279 280 278 278 283 286 286 288 291 295 298 300 304 308 309 308 310 313 313 312 311
251 252 254 256 258 258 259 258 256 253 251 254 258 262 261 258 255 254 255 260 260 247 232 228 225 222 226 231 228 224 231 244 253 258 261 264 265 266 268 269 270 274 280 284 285 287 290 289 287 287 290 294 295 297 301 307 309 309 311 312 310 308 307
254 254 256 256 258 258 256 256 257 254 250 251 254 257 257 256 253 253 256 257 251 233 220 217 213 207 213 223 233 242 250 252 255 259 261 262 264 266 268 269 269 272 279 285 288 291 291 288 287 288 290 291 292 294 300 306 307 308 309 308 306 305 305
257 257 257 258 260 261 258 258 259 255 251 251 252 254 257 256 250 247 247 242 230 214 205 205 207 208 215 225 238 249 255 257 260 262 261 263 266 269 271 273 273 276 281 284 287 290 290 290 292 293 290 289 291 296 302 306 306 306 307 305 303 303 304
Height
5891 5891 5892 5894 5896 5898 5900 5901 5902 5902 5903 5904 5904 5905 5907 5908 5909 5910 5910 5910 5911 5911 5913 5913 5913 5913 5913 5913 5913 5914 5915 5916 5917 5919 5921 5923 5924 5925 5925 5925 5924 5923 5922 5921 5920 5920 5920 5921 5921 5920 5919 5918 5916 5914 5912 5910 5908 5907 5906 5906 5905 5904 5903
5888 5889 5890 5892 5893 5895 5898 5899 5899 5900 5900 5901 5902 5902 5904 5905 5906 5907 5907 5907 5908 5909 5910 5911 5911 5910 5910 5910 5910 5911 5912 5913 5915 5917 5919 5921 5922 5923 5923 5922 5921 5920 5919 5919 5919 5919 5919 5919 5919 5918 5917 5915 5913 5911 5910 5908 5907 5906 5905 5905 5904 5903 5901
5886 5887 5889 5890 5891 5892 5894 5895 5896 5897 5898 5898 5899 5900 5901 5902 5904 5904 5904 5905 5906 5906 5907 5908 5908 5908 5908 5908 5908 5908 5909 5910 5912 5915 5917 5919 5920 5921 5921 5920 5918 5917 5917 5917 5917 5918 5918 5918 5918 5917 5915 5913 5911 5909 5908 5907 5906 5904 5904 5903 5902 5901 5899
5883 5885 5887 5888 5888 5890 5891 5892 5893 5894 5895 5896 5897 5898 5898 5899 5900 5902 5902 5902 5903 5904 5904 5905 5905 5905 5905 5905 5905 5906 5907 5908 5910 5912 5914 5916 5918 5918 5918 5917 5915 5915 5914 5915 5916 5917 5916 5916 5916 5915 5913 5912 5910 5908 5907 5906 5905 5904 5903 5902 5900 5899 5897
5879 5881 5884 5885 5886 5888 5889 5890 5890 5891 5892 5893 5894 5895 5895 5896 5897 5898 5899 5900 5901 5901 5902 5902 5902 5903 5902 5902 5902 5903 5904 5906 5908 5910 5912 5914 5915 5915 5915 5914 5913 5913 5913 5914 5915 5915 5915 5915 5914 5913 5912 5910 5908 5907 5906 5905 5905 5904 5902 5901 5899 5897 5896
5876 5878 5881 5883 5885 5886 5888 5888 5888 5888 5889 5890 5891 5892 5893 5894 5895 5896 5897 5897 5898 5899 5899 5899 5899 5899 5899 5899 5900 5900 5902 5904 5906 5908 5910 5912 5912 5912 5912 5912 5911 5911 5911 5912 5913 5913 5913 5913 5913 5912 5910 5909 5907 5906 5905 5905 5904 5903 5902 5900 5898 5896 5894
5873 5875 5878 5881 5883 5884 5886 5886 5886 5886 5887 5887 5888 5890 5891 5892 5893 5894 5894 5895 5896 5896 5896 5896 5896 5896 5897 5897 5897 5898 5900 5902 5903 5906 5908 5909 5910 5910 5910 5910 5910 5910 5910 5910 5911 5910 5910 5910 5910 5909 5908 5907 5906 5905 5904 5903 5902 5901 5900 5899 5897 5895 5893
5869 5871 5874 5878 5880 5882 5883 5883 5883 5884 5885 5886 5887 5888 5890 5891 5891 5891 5892 5893 5893 5894 5894 5893 5893 5893 5894 5894 5895 5896 5898 5900 5902 5904 5906 5906 5907 5908 5908 5908 5908 5908 5908 5908 5909 5908 5908 5907 5907 5907 5906 5905 5905 5904 5903 5902 5901 5900 5898 5897 5895 5894 5892
5866 5867 5870 5873 5876 5878 5879 5880 5881 5882 5883 5884 5885 5886 5887 5888 5889 5889 5890 5891 5891 5892 5891 5891 5890 5891 5892 5892 5893 5895 5896 5898 5900 5902 5903 5904 5905 5905 5906 5906 5906 5906 5906 5906 5906 5906 5906 5905 5905 5904 5904 5903 5903 5902 5902 5901 5900 5898 5896 5895 5893 5891 5890
5863 5865 5867 5869 5871 5874 5876 5878 5878 5880 5881 5882 5882 5884 5885 5886 5887 5887 5888 5889 5890 5890 5889 5888 5888 5888 5889 5890 5892 5893 5895 5897 5898 5900 5901 5902 5903 5903 5904 5904 5904 5904 5904 5904 5904 5904 5904 5904 5903 5902 5902 5902 5901 5901 5900 5899 5898 5896 5894 5892 5890 5888 5887
5860 5862 5864 5866 5868 5870 5872 5874 5876 5877 5879 5880 5880 5881 5882 5883 5884 5885 5886 5887 5887 5887 5886 5886 5886 5886 5887 5888 5890 5892 5893 5895 5896 5898 5898 5899 5900 5901 5901 5902 5902 5902 5902 5902 5902 5902 5902 5902 5901 5901 5901 5900 5900 5899 5898 5897 5895 5893 5891 5889 5887 5885 5883
5857 5859 5862 5863 5864 5866 5869 5871 5873 5874 5875 5876 5877 5878 5879 5880 5882 5883 5884 5885 5885 5885 5884 5883 5884 5884 5885 5886 5888 5890 5891 5893 5894 5895 5896 5897 5897 5898 5899 5899 5899 5899 5900 5900 5900 5900 5900 5900 5900 5899 5899 5898 5897 5896 5895 5893 5891 5889 5887 5886 5884 5882 5880
5854 5855 5858 5859 5860 5862 5866 5869 5870 5870 5871 5872 5874 5875 5876 5877 5879 5880 5881 5882 5882 5882 5881 5881 5882 5882 5882 5883 5886 5888 5889 5890 5891 5893 5894 5894 5895 5896 5896 5896 5897 5897 5897 5897 5897 5897 5898 5898 5898 5897 5896 5895 5894 5893 5891 5890 5888 5886 5884 5882 5880 5878 5876
5851 5852 5854 5855 5856 5859 5863 5865 5865 5866 5867 5869 5870 5872 5872 5873 5875 5877 5878 5878 5879 5879 5878 5879 5879 5880 5879 5880 5883 5885 5887 5888 5889 5890 5891 5891 5892 5893 5893 5894 5894 5894 5894 5894 5894 5894 5894 5894 5894 5893 5892 5891 5890 5889 5888 5886 5885 5883 5881 5879 5876 5874 5872
5848 5849 5850 5851 5852 5855 5858 5859 5860 5861 5863 5865 5867 5868 5869 5870 5872 5873 5874 5875 5876 5876 5876 5876 5877 5877 5877 5878 5880 5882 5884 5885 5886 5887 5888 5889 5889 5890 5891 5891 5891 5891 5892 5891 5891 5891 5891 5890 5890 5889 5888 5887 5886 5885 5884 5883 5882 5880 5878 5875 5872 5870 5868
5845 5846 5847 5849 5850 5851 5853 5855 5856 5857 5859 5861 5863 5864 5865 5866 5868 5870 5871 5872 5873 5873 5873 5873 5875 5875 5874 5875 5877 5879 5880 5882 5883 5884 5884 5886 5887 5887 5888 5888 5889 5889 5889 5888 5888 5887 5887 5887 5886 5885 5884 5883 5883 5882 5881 5880 5878 5876 5874 5871 5868 5866 5864
5841 5842 5843 5845 5847 5848 5850 5851 5853 5854 5856 5857 5859 5861 5862 5862 5864 5866 5867 5868 5869 5870 5870 5870 5872 5872 5871 5872 5874 5875 5877 5878 5880 5880 5881 5882 5883 5884 5885 5885 5885 5885 5885 5885 5884 5884 5884 5884 5883 5882 5881 5880 5879 5879 5878 5877 5875 5873 5870 5867 5864 5861 5859
5836 5838 5840 5842 5845 5846 5847 5849 5851 5852 5853 5854 5856 5857 5858 5859 5860 5861 5862 5864 5866 5867 5867 5867 5868 5869 5869 5869 5870 5871 5873 5875 5876 5877 5877 5879 5879 5880 5881 5881 5881 5881 5881 5881 5881 5880 5880 5880 5879 5879 5878 5877 5876 5875 5874 5872 5870 5868 5866 5863 5860 5858 5855
5832 5834 5836 5839 5841 5843 5844 5846 5847 5847 5849 5851 5852 5853 5854 5855 5856 5856 5858 5860 5862 5863 5863 5863 5864 5865 5865 5865 5866 5868 5869 5870 5872 5873 5874 5875 5876 5876 5877 5877 5877 5877 5877 5877 5877 5876 5876 5876 5876 5875 5874 5873 5872 5870 5869 5868 5866 5865 5861 5857 5855 5855 5853
5830 5829 5831 5833 5836 5839 5840 5841 5842 5843 5846 5847 5848 5850 5851 5851 5852 5853 5854 5856 5857 5859 5860 5860 5860 5861 5862 5862 5862 5863 5865 5865 5867 5868 5869 5871 5871 5872 5872 5873 5873 5873 5872 5872 5872 5872 5872 5873 5872 5872 5871 5870 5868 5867 5866 5864 5863 5862 5859 5853 5850 5851 5850
5828 5828 5827 5828 5830 5833 5834 5835 5837 5840 5842 5843 5844 5846 5847 5847 5848 5849 5851 5852 5853 5854 5855 5856 5856 5856 5857 5858 5858 5859 5860 5860 5862 5863 5864 5866 5867 5867 5868 5868 5868 5868 5868 5868 5868 5868 5868 5868 5868 5868 5867 5866 5865 5863 5862 5861 5860 5859 5856 5851 5848 5847 5845
5825 5826 5826 5825 5825 5827 5828 5830 5832 5834 5836 5838 5839 5841 5842 5843 5844 5845 5846 5847 5848 5848 5849 5850 5851 5851 5852 5854 5854 5854 5855 5855 5856 5858 5859 5861 5861 5862 5863 5863 5863 5864 5863 5864 5864 5864 5864 5864 5864 5864 5863 5862 5861 5859 5858 5857 5856 5854 5852 5849 5846 5843 5840
5819 5820 5821 5822 5822 5822 5823 5824 5826 5828 5829 5832 5834 5835 5837 5838 5839 5840 5841 5842 5842 5843 5843 5844 5845 5846 5847 5849 5850 5850 5850 5850 5850 5852 5853 5855 5856 5857 5858 5858 5858 5859 5859 5859 5860 5859 5859 5859 5859 5859 5859 5858 5856 5855 5853 5851 5850 5849 5847 5845 5843 5839 5837
5809 5812 5814 5816 5818 5818 5818 5819 5821 5822 5823 5824 5826 5829 5831 5833 5834 5834 5835 5836 5836 5837 5837 5838 5839 5840 5842 5843 5844 5844 5844 5844 5844 5845 5847 5848 5850 5851 5851 5852 5853 5853 5854 5854 5855 5855 5855 5855 5855 5855 5854 5853 5852 5851 5849 5846 5845 5844 5842 5840 5838 5835 5833
5800 5803 5806 5809 5811 5813 5813 5814 5816 5818 5818 5819 5821 5824 5826 5827 5828 5828 5828 5829 5830 5831 5831 5832 5833 5835 5836 5837 5838 5838 5838 5838 5839 5839 5840 5842 5843 5844 5845 5846 5847 5848 5849 5849 5850 5850 5851 5851 5851 5850 5850 5849 5848 5847 5844 5842 5840 5839 5838 5835 5833 5831 5829
5794 5796 5799 5801 5803 5806 5808 5809 5810 5812 5813 5814 5817 5819 5820 5821 5821 5821 5822 5823 5824 5824 5826 5827 5828 5829 5830 5831 5831 5831 5832 5833 5833 5834 5835 5837 5838 5839 5840 5841 5843 5844 5844 5845 5845 5846 5846 5846 5846 5846 5845 5844 5843 5841 5839 5837 5836 5834 5832 5830 5829 5826 5824
5791 5792 5793 5794 5796 5799 5802 5803 5804 5806 5806 5808 5811 5814 5815 5815 5815 5815 5816 5817 5817 5818 5820 5821 5821 5821 5822 5823 5825 5826 5826 5827 5828 5830 5831 5833 5834 5835 5836 5838 5839 5839 5839 5840 5840 5840 5841 5841 5841 5840 5839 5839 5838 5836 5834 5832 5831 5829 5827 5825 5823 5821 5819
5787 5789 5789 5789 5791 5793 5796 5797 5799 5801 5801 5802 5805 5808 5810 5811 5811 5811 5810 5810 5810 5812 5814 5814 5813 5814 5816 5818 5820 5821 5822 5823 5825 5827 5828 5829 5830 5832 5833 5834 5834 5835 5835 5835 5835 5835 5835 5836 5835 5835 5834 5834 5833 5831 5830 5828 5826 5824 5822 5820 5818 5816 5814
5779 5781 5783 5785 5786 5788 5790 5791 5793 5795 5795 5795 5796 5798 5802 5805 5805 5804 5803 5803 5805 5807 5808 5808 5808 5810 5812 5814 5815 5817 5818 5820 5821 5823 5823 5824 5825 5826 5828 5829 5829 5830 5831 5830 5830 5830 5830 5830 5830 5830 5830 5830 5829 5827 5825 5823 5821 5819 5817 5815 5813 5811 5810
5772 5774 5776 5778 5780 5782 5783 5785 5787 5788 5788 5788 5787 5788 5791 5793 5793 5793 5795 5797 5800 5802 5803 5804 5806 5806 5807 5808 5810 5812 5813 5815 5816 5817 5817 5818 5819 5820 5822 5823 5825 5826 5826 5826 5826 5825 5825 5825 5825 5826 5826 5825 5824 5823 5821 5818 5815 5813 5811 5810 5808 5807 5805
5766 5768 5771 5772 5773 5775 5777 5778 5780 5782 5783 5782 5781 5781 5783 5782 5782 5785 5788 5789 5791 5793 5795 5796 5798 5799 5799 5800 5802 5804 5806 5809 5810 5810 5810 5810 5812 5814 5817 5818 5820 5821 5822 5822 5821 5821 5820 5820 5820 5821 5821 5820 5819 5817 5815 5813 5810 5807 5806 5805 5804 5802 5801
5760 5763 5765 5767 5768 5770 5771 5772 5773 5775 5775 5774 5773 5774 5774 5773 5774 5778 5780 5780 5783 5784 5785 5787 5791 5792 5792 5792 5794 5797 5799 5800 5800 5800 5801 5803 5805 5808 5811 5813 5814 5816 5816 5816 5816 5815 5814 5814 5815 5815 5815 5814 5813 5811 5809 5806 5804 5802 5801 5800 5799 5797 5796
5754 5757 5760 5761 5763 5765 5766 5766 5767 5768 5767 5765 5765 5765 5765 5765 5767 5769 5769 5771 5776 5778 5777 5780 5786 5789 5791 5793 5794 5795 5796 5798 5798 5799 5799 5799 5801 5803 5806 5808 5809 5810 5810 5810 5810 5810 5810 5809 5809 5809 5809 5808 5807 5805 5802 5800 5799 5798 5796 5795 5793 5792 5790
5749 5752 5753 5755 5757 5759 5760 5761 5761 5762 5761 5760 5760 5759 5758 5759 5761 5762 5761 5762 5766 5768 5769 5772 5778 5784 5790 5793 5793 5792 5794 5796 5797 5797 5796 5796 5798 5800 5802 5803 5804 5805 5805 5805 5805 5805 5805 5805 5804 5803 5803 5803 5802 5800 5797 5795 5794 5793 5791 5790 5788 5787 5785
5745 5746 5747 5748 5750 5752 5753 5753 5754 5755 5756 5754 5753 5752 5751 5752 5754 5757 5757 5756 5757 5760 5763 5765 5770 5778 5784 5785 5783 5784 5787 5789 5791 5791 5792 5793 5796 5797 5798 5799 5800 5800 5800 5800 5800 5800 5800 5799 5798 5797 5796 5796 5796 5795 5791 5789 5788 5788 5786 5784 5783 5782 5780
5739 5740 5740 5742 5743 5744 5745 5746 5746 5747 5747 5745 5744 5743 5743 5744 5747 5749 5751 5751 5753 5755 5758 5762 5766 5771 5774 5775 5774 5777 5781 5784 5786 5787 5789 5790 5792 5793 5793 5793 5793 5793 5794 5795 5795 5795 5794 5793 5792 5791 5789 5789 5789 5789 5787 5784 5782 5782 5781 5779 5778 5776 5774
5732 5733 5734 5735 5735 5736 5737 5738 5739 5739 5738 5737 5737 5736 5734 5735 5739 5742 5743 5745 5748 5750 5752 5757 5760 5761 5762 5765 5769 5772 5776 5779 5781 5783 5785 5786 5786 5787 5788 5788 5788 5788 5789 5790 5790 5790 5788 5787 5786 5785 5784 5783 5783 5783 5782 5779 5777 5777 5777 5775 5773 5771 5769
5726 5727 5727 5728 5728 5729 5729 5730 5730 5731 5730 5730 5731 5730 5728 5728 5731 5734 5737 5740 5743 5743 5744 5747 5750 5751 5754 5759 5764 5768 5771 5774 5777 5778 5779 5780 5780 5781 5782 5783 5783 5783 5784 5785 5786 5785 5783 5781 5780 5779 5779 5778 5777 5777 5777 5775 5772 5771 5770 5769 5768 5766 5764